Lihue, HI

8:26 AM HST on October 22, 2017 (GMT -1000)
Lihue

Weather History for PHLI - May, 2012

Change the Weather History Date:

Thursday, May 31, 2012

  Actual Average Record
Temperature  
Mean Temperature 76 °F 77 °F  
Max Temperature 81 °F 82 °F 87 °F (1962)
Min Temperature 71 °F 72 °F 65 °F (1950)
Degree Days  
Heating Degree Days 0 0  
Month to date heating degree days 0 0  
Since 1 July heating degree days 0 0  
Cooling Degree Days 11 12  
Month to date cooling degree days 352 335  
Year to date cooling degree days 1406 1239  
Growing Degree Days 25 (Base 50)    
Moisture  
Dew Point 67 °F    
Average Humidity 76    
Maximum Humidity 84    
Minimum Humidity 67    
Precipitation  
Precipitation 0.05 in 0.05 in 0.22 in (1970)
Month to date precipitation 1.02 2.07  
Year to date precipitation 32.77 15.84  
Snow  
Snow 0.00 in - - ()
Month to date snowfall 0.0  
Since 1 July snowfall 0.0  
Snow Depth 0.00 in    
Sea Level Pressure  
Sea Level Pressure 30.17 in    
Wind  
Wind Speed 17 mph (NE)    
Max Wind Speed 23 mph    
Max Gust Speed 28 mph    
Visibility 10 miles    
Events Rain    
T = Trace of Precipitation, MM = Missing Value Source: NWS Daily Summary

Daily Weather History Graph

Daily Weather History Graph

Search for Another Location

Airport or City:

Trip Planner

Search our weather history database for the weather conditions in past years. The results will help you decide how hot, cold, wet, or windy it might be!

Date:

Astronomy

May. 31, 2012 Rise Set
Actual Time 5:53 AM HST 7:16 PM HST
Civil Twilight 5:28 AM HST 7:41 PM HST
Nautical Twilight 4:59 AM HST 8:11 PM HST
Astronomical Twilight 4:29 AM HST 8:41 PM HST
Moon 3:40 PM HST (5/31) 2:33 AM HST (5/31)
Length of Visible Light 14h 12m
Length of Day
13h 23m
Waxing Gibbous, 82% of the Moon is Illuminated
May 31
Waxing Gibbous
Jun 4
Full
Jun 11
Last Quarter
Jun 19
New
Jun 26
First Quarter

Hourly Weather History & Observations

Time (HST) Temp. Dew Point Humidity Pressure Visibility Wind Dir Wind Speed Gust Speed Precip Events Conditions
12:53 AM 73.9 °F 64.9 °F 73% 30.16 in 10.0 mi NE 18.4 mph - 0.00 in   Overcast
1:53 AM 73.0 °F 66.9 °F 81% 30.15 in 10.0 mi NE 21.9 mph - N/A   Mostly Cloudy
2:53 AM 73.0 °F 66.9 °F 81% 30.14 in 10.0 mi NE 17.3 mph - N/A   Mostly Cloudy
3:53 AM 71.1 °F 66.9 °F 87% 30.14 in 4.0 mi NE 12.7 mph 24.2 mph 0.01 in Rain Rain
4:03 AM 71.6 °F 68.0 °F 88% 30.15 in 10.0 mi NE 11.5 mph - 0.00 in   Overcast
4:53 AM 71.1 °F 66.9 °F 87% 30.14 in 6.0 mi ENE 11.5 mph - 0.01 in Rain Light Rain
5:53 AM 72.0 °F 66.9 °F 84% 30.15 in 10.0 mi ENE 17.3 mph - 0.00 in   Scattered Clouds
6:40 AM 73.4 °F 66.2 °F 78% 30.17 in 10.0 mi NE 16.1 mph - N/A   Scattered Clouds
6:53 AM 73.9 °F 66.9 °F 79% 30.17 in 10.0 mi ENE 15.0 mph - N/A   Mostly Cloudy
6:55 AM 73.4 °F 66.2 °F 78% 30.17 in 10.0 mi NE 17.3 mph - N/A   Scattered Clouds
7:53 AM 75.9 °F 66.9 °F 74% 30.19 in 10.0 mi NE 16.1 mph - N/A   Scattered Clouds
8:30 AM 77.0 °F 66.2 °F 69% 30.20 in 10.0 mi ENE 15.0 mph - N/A   Mostly Cloudy
8:41 AM 77.0 °F 66.2 °F 69% 30.20 in 10.0 mi NE 18.4 mph - N/A   Scattered Clouds
8:53 AM 77.0 °F 66.9 °F 71% 30.19 in 10.0 mi NE 19.6 mph - N/A   Partly Cloudy
9:53 AM 79.0 °F 66.9 °F 66% 30.20 in 10.0 mi NE 15.0 mph - N/A   Partly Cloudy
10:53 AM 77.0 °F 66.0 °F 69% 30.20 in 10.0 mi East 18.4 mph - N/A   Mostly Cloudy
11:53 AM 78.1 °F 69.1 °F 74% 30.19 in 10.0 mi NE 15.0 mph - 0.03 in   Mostly Cloudy
12:53 PM 79.0 °F 66.9 °F 66% 30.17 in 10.0 mi NE 20.7 mph 25.3 mph N/A   Mostly Cloudy
1:08 PM 78.8 °F 66.2 °F 65% 30.18 in 10.0 mi NE 15.0 mph - N/A   Overcast
1:53 PM 77.0 °F 69.1 °F 76% 30.16 in 8.0 mi NNE 17.3 mph - 0.00 in Rain Light Rain
2:53 PM 79.0 °F 66.9 °F 66% 30.16 in 10.0 mi NE 18.4 mph - 0.00 in   Overcast
3:53 PM 79.0 °F 68.0 °F 69% 30.14 in 10.0 mi NNE 16.1 mph - N/A   Scattered Clouds
4:24 PM 78.8 °F 68.0 °F 69% 30.15 in 10.0 mi NNE 17.3 mph - N/A   Mostly Cloudy
4:53 PM 75.0 °F 68.0 °F 79% 30.14 in 10.0 mi NE 17.3 mph - 0.00 in Rain Light Rain
5:02 PM 75.2 °F 66.2 °F 73% 30.15 in 10.0 mi ENE 18.4 mph - 0.00 in Rain Light Rain
5:38 PM 77.0 °F 66.2 °F 69% 30.15 in 10.0 mi NE 18.4 mph - 0.00 in   Partly Cloudy
5:53 PM 75.0 °F 66.0 °F 73% 30.15 in 10.0 mi NE 19.6 mph - 0.00 in   Scattered Clouds
6:53 PM 75.0 °F 64.0 °F 69% 30.16 in 10.0 mi NE 19.6 mph - N/A   Partly Cloudy
7:53 PM 73.9 °F 66.0 °F 76% 30.18 in 10.0 mi ENE 17.3 mph - N/A   Partly Cloudy
8:00 PM 75.2 °F 66.2 °F 73% 30.19 in 10.0 mi NE 16.1 mph - N/A   Mostly Cloudy
8:53 PM 73.9 °F 66.0 °F 76% 30.19 in 10.0 mi NE 20.7 mph - N/A   Scattered Clouds
9:53 PM 73.9 °F 64.9 °F 73% 30.20 in 10.0 mi NE 19.6 mph - N/A   Scattered Clouds
10:53 PM 73.9 °F 66.0 °F 76% 30.20 in 10.0 mi NE 18.4 mph 25.3 mph N/A   Scattered Clouds
11:37 PM 73.4 °F 64.4 °F 73% 30.21 in 10.0 mi NE 19.6 mph - N/A   Mostly Cloudy
11:53 PM 73.9 °F 66.0 °F 76% 30.19 in 10.0 mi ENE 18.4 mph - N/A   Mostly Cloudy